Regional Weather Roundup
Issued by NWS Upton, NY

Current Version | Previous Version | Graphics & Text | Print | Product List | Glossary Off
Versions: 1 2 3 4 5 6 7 8 9 10 11 12 13 14 15 16 17 18 19 20 21 22 23 24 25 26 27 28 29 30 31 32 33 34 35 36 37 38 39 40 41 42 43 44 45 46 47 48 49 50
000 ASUS41 KOKX 262005 RWROKX REGIONAL WEATHER ROUNDUP NATIONAL WEATHER SERVICE NEW YORK NY 300 PM EST WED NOV 26 2014 NOTE: "FAIR" INDICATES FEW OR NO CLOUDS BELOW 12,000 FEET WITH NO SIGNIFICANT WEATHER AND/OR OBSTRUCTIONS TO VISIBILITY. NYZ071-072-176-178-NJZ106-104-262100- NEW YORK CITY METRO AREA CITY SKY/WX TMP DP RH WIND PRES REMARKS CENTRAL PARK LGT RAIN 36 32 85 NE13G23 29.87F FOG WCI 27 LAGUARDIA APRT LGT SNOW 36 33 89 NE15G26 29.86F FOG WCI 27 KENNEDY INTL RAIN 37 34 89 NE17G30 29.85F FOG WCI 27 NEWARK/LIBERTY LGT RAIN 34 33 96 N16 29.88F FOG WCI 24 BRNX BOT. GARD N/A 34 32 93 N9 29.85F WCI 26 TETERBORO LGTSLEET 34 30 86 N9 29.88F WCI 26 $$ NYZ177-179-078>081-262100- LONG ISLAND NEW YORK CITY SKY/WX TMP DP RH WIND PRES REMARKS FARMINGDALE NOT AVBL ISLIP RAIN 38 35 89 N18 29.84F FOG WCI 28 SHIRLEY RAIN 39 37 92 N12G24 29.85F FOG WCI 32 WESTHAMPTON RAIN 39 37 92 NE22G30 29.84F FOG WCI 29 MONTAUK POINT N/A 41 38 89 N22G35 29.86F $$ NYZ052-065-067-262100- HUDSON VALLEY CITY SKY/WX TMP DP RH WIND PRES REMARKS WHITE PLAINS LGT RAIN 34 32 92 NE10 29.84F FOG WCI 26 NEWBURGH SNOW 32 32 100 NE14 29.91F VSB 1/2 WCI 22 MONTGOMERY LGT SNOW 33 31 92 NE17G23 29.91F VSB 3/4 WCI 22 POUGHKEEPSIE SNOW 34 31 88 N12 29.92F VSB 1/2 WCI 25 ALBANY SNOW 32 30 92 N9 30.05F VSB 1/4 WCI 24 $$ NJZ001-105-106-008-010-013-015-019>022-104-262100- NEW JERSEY CITY SKY/WX TMP DP RH WIND PRES REMARKS NEWARK/LIBERTY LGT RAIN 34 33 96 N16 29.88F FOG WCI 24 TETERBORO LGTSLEET 34 30 86 N9 29.88F WCI 26 CALDWELL LGT SNOW 33 30 88 NE6 29.89F FOG WCI 28 MORRISTOWN LGT SNOW 34 34 100 NE9 29.89F VSB 1 WCI 26 SOMERVILLE LGT SNOW 34 32 92 N3 29.86F FOG SUSSEX SNOW 33 31 92 NE9 29.89F VSB 1/2 WCI 25 ANDOVER N/A 33 32 96 VRB3 29.89F TRENTON RAIN 34 31 88 NE13G22 29.84S FOG WCI 25 MILLVILLE LGT RAIN 38 36 92 N15G26 29.77F WCI 29 ATLANTIC CITY RAIN 38 37 97 N24G31 29.72F FOG WCI 27 WRIGHTSTOWN RAIN 35 35 98 N15 29.80F FOG WCI 26 TOMS RIVER CLOUDY 37 36 93 N8 29.80F WCI 31 BELMAR CLOUDY 37 30 75 N13G21 29.83F WCI 29 $$ PAZ047>061-062-071-262100- EASTERN PENNSYLVANIA CITY SKY/WX TMP DP RH WIND PRES REMARKS PHILADELPHIA LGT RAIN 37 33 85 N17 29.85S WCI 27 ALLENTOWN LGT SNOW 34 32 92 N3 29.92R FOG SCRANTON LGT SNOW 33 31 92 VRB5 29.94F VSB 1 WCI 29 $$ CTZ002-004>006-009-010-012-RIZ004-006-007-MAZ004-011-015-262100- SOUTHERN NEW ENGLAND IN CT CITY SKY/WX TMP DP RH WIND PRES REMARKS BRADLEY INTL LGT SNOW 34 31 88 N16 29.96F VSB 1 WCI 24 HARTFORD LGT SNOW 33 31 92 N12 29.95F VSB 3/4 WCI 24 DANBURY LGT SNOW 33 30 88 NE9 29.90F FOG WCI 25 WTRBRY/OXFORD NOT AVBL BRIDGEPORT RAIN 36 34 92 N16 29.90F FOG WCI 26 MERIDEN RAIN 33 31 92 N12G21 29.90F FOG WCI 24 NEW HAVEN RAIN 37 32 82 N16 29.89F WCI 28 CHESTER HVY RAIN 34 32 93 NE12G21 29.90F WCI 25 GROTON RAIN 35 35 100 N16G28 29.87F FOG WCI 25 WILLIMANTIC RAIN 34 31 88 NE13 29.92F FOG WCI 25 IN RI CITY SKY/WX TMP DP RH WIND PRES REMARKS PROVIDENCE HVY RAIN 35 33 92 N20G25 29.96F FOG WCI 24 BLOCK ISLAND CLOUDY 39 34 81 NE20G32 29.86F WCI 30 WESTERLY RAIN 37 35 92 NE16G24 29.87F FOG WCI 28 IN MA CITY SKY/WX TMP DP RH WIND PRES REMARKS BOSTON SLEET 37 35 92 N22G32 30.03F FOG WCI 26 WORCESTER LGT SNOW 31 31 100 NE13G26 29.98F VSB 3/4 WCI 21 WESTFIELD LGT SNOW 33 31 92 N16 29.98F VSB 1 WCI 23 PROVINCETOWN CLOUDY 45 41 87 NE21G29 29.98F NANTUCKET HVY RAIN 46 43 89 NE25G33 29.85F FOG $$ ANZ330-335-338-340-345-350-353-355-262100- COASTAL MARINE OBSERVATIONS STATION/POSITION TIME SKY/WX TEMP WIND PRES VSBY WAVE AIR SEA DIR/SP/G HT/PER (UTC) (F) (DEG/KT/KT) (MB) (MI) (FT/S) NY HARB ENTRANCE 2000 41 54 360/ 25/ 31 1010.1 6/ 5 4S FIRE IS 2000 53 N/A 5/ 5 20S FIRE ISLAND 2000 44 55 20/ 29/ 37 1008.0 8/ 7 23SW MTP 2000 N/A 10/ 7 HUDSON CANYON 2000 50 59 30/ 35/ 43 1002.8 EXECUTION ROCKS 2000 38 48 20/ 19/ 25 N/A WESTERN LI SOUND 2000 38 20/ 19/ 23 N/A 2/ 3 CENTRAL LI SOUND 1900 38 51 10/ 25/ 31 N/A 3/ 4 EASTERN LI SOUND 1900 40 52 20/ 19/ 25 N/A ROBBINS REEF 2000 36 20/ 17/ 21 1009.8 $$ >>>>>>>>>>>>>>>>>>>>>>>>>>>> KEY <<<<<<<<<<<<<<<<<<<<<<<<<<< > < > SKY/WX - SKY CONDITION/PRESENT WEATHER < > TMP - TEMPERATURE IN FAHRENHEIT < > DP - DEWPOINT IN FAHRENHEIT < > RH - RELATIVE HUMIDITY IN PERCENT < > WIND - DIRECTION AND SPEED IN MPH < > PRES - MEAN SEA LEVEL PRESSURE IN INCHES OF HG < > WCI - WIND CHILL INDEX < > VSB - VISIBILITY IN MILES < > HX - HEAT INDEX < > TC - TEMPERATURE IN CELSIUS < > VRB - VARIABLE WIND DIRECTION < > < >>>>>>>>>>>>>>>>>>>>>>>>>>>> KEY <<<<<<<<<<<<<<<<<<<<<<<<<<<

USA.gov is the U.S. government's official web portal to all federal, state and local government web resources and services.